CZ-6A DEB, 54899

Orbit data source: Space-Track

CZ-6A DEB, 54899 is space debris in SSO originally from a launch on Fri, 11 Nov 2022 UTC launched from the Taiyaun Space Center, China (TSC). Debris objects in space refer to the collection of defunct objects orbiting the Earth. Examples of debris include non-operational satellites, rocket bodies, and fragments generated from explosions, collisions, or faulty payload assembly.

Loading next visibility...
Identifier
54899, 2022-151QL
Orbit
SSO
Country
Flag of CNCN / PRC
Related business
Manufacturer
SAST
Mission
Spacecraft
Bus & Motor
Unknown
Mass
Unknown
Launch date (UTC)
2022-11-11 (3 years ago)
Launch vehicle
Unknown
Launch site
Taiyaun Space Center, China (TSC)
Object type
Payload
Rocket body
Debris
Shape & HBR
Unknown shape, 0.1 m
Radar Cross Section
Small (<0.1 m²)

Expand to show TLE details & history
Last TLE update: 21 hours ago

TLE from 21 hours ago
0 CZ-6A DEB
1 54899U 22151QL  25350.01672137  .00002892  00000-0  12070-2 0  9991
2 54899  98.7827   4.1318 0027229 125.0989 235.2749 14.26790703157555
Epoch: 2025-12-16T00:24Z
TLE epoch observation values (Epoch: 2025-12-16T00:24:04.726Z)
Latitude
-0.00006°
Longitude
-86.79486°
Altitude
816.576 km
Speed
7.439 km/s
True Right ascension
00h 16m 31s
True Declination
0° 00' 00"
Sunlit
Object was in daylight at epoch
Visualization orbit readout
Latitude
Unknown
Longitude
Unknown
Altitude
Unknown
Speed
Unknown
Apparent Right ascension
Unknown
Apparent Declination
Unknown
Sunlit
N/A
Visualization observer readout
Local Sidereal Time
19:43:02
Azimuth
Unknown
Elevation
Unknown
Doppler factor
Unknown
Orbital elements
Apogee altitude
819.176 km
Perigee altitude
780.087 km
Semi-major axis
7,177.768 km
Eccentricity
0.00272
Inclination
98.7827°
RAAN
4.1318°
Arg. of periapsis
125.0989°
True anomaly
235.01895°
Mean anomaly
235.2749°
Eccentric anomaly
235.14687°
Mean motion
3.5691 °/min
Orbital period
100.87 mins
BSTAR
0.001207
Loading maneuver chart data...
Computing Atmospheric mass density...
Loading historical data...
Loading historical data...
Loading historical data...
Loading historical data...
Loading historical data...
Loading historical data...
Loading historical data...

Documentation

Showing up to 5 results
|